[Iaude] MPEC N78: 2024 NN1 [a=2.73,e=0.66,i=2.8,H=22.3]
    mpec at cfa.harvard.edu 
    mpec at cfa.harvard.edu
       
    Sat Jul  6 23:11:28 EDT 2024
    
    
  
M.P.E.C. 2024-N78                                  Issued 2024 July 7, 03:09 UT
     The Minor Planet Electronic Circulars contain information on unusual
         minor planets, routine data on comets and natural satellites,
         and occasional editorial announcements.  They are published
    on behalf of Division F of the International Astronomical Union by the
          Minor Planet Center, Smithsonian Astrophysical Observatory,
                          Cambridge, MA 02138, U.S.A.
			  
             Prepared using the Tamkin Foundation Computer Network
                              MPC at CFA.HARVARD.EDU
            URL https://www.minorplanetcenter.net/    ISSN 1523-6714
                                    2024 NN1                                    
Observations:
     K24N01N*KB2024 07 04.87373 19 08 54.554-42 00 26.14         21.3 GXEN078L87
     K24N01N KB2024 07 04.87986 19 08 55.409-42 00 43.74         19.9 GXEN078L87
     K24N01N KB2024 07 04.88601 19 08 56.234-42 01 00.44         19.5 GXEN078L87
     K24N01N KB2024 07 05.15634 19 09 32.467-42 12 54.00         19.7 GXEN078L87
     K24N01N KB2024 07 05.16270 19 09 33.461-42 13 09.91         19.6 GXEN078L87
     K24N01N KB2024 07 05.16906 19 09 34.411-42 13 26.18         19.6 GXEN078L87
     K24N01N KC2024 07 05.43130 19 10 22.86 -42 25 33.9          19.7 VqEN078E94
     K24N01N KC2024 07 05.45931 19 10 26.85 -42 26 53.8          19.8 VqEN078E94
     K24N01N KC2024 07 05.48689 19 10 30.79 -42 28 12.6          19.8 VqEN078E94
     K24N01N 0B2024 07 05.94850819 11 48.847-42 50 18.06         19.6 VZEN078M49
     K24N01N 0B2024 07 05.95846419 11 50.358-42 50 46.98         19.7 VZEN078M49
     K24N01N 0B2024 07 05.97000819 11 52.005-42 51 20.48         19.6 VZEN078M49
     K24N01N KC2024 07 06.00290 19 11 56.88 -42 52 54.6          19.1 GVEN078M21
     K24N01N KC2024 07 06.05245 19 12 04.26 -42 55 14.8          19.3 GVEN078M21
     K24N01N KC2024 07 06.63266 19 13 50.04 -43 23 45.6          19.3 VqEN078E94
     K24N01N KC2024 07 06.64590 19 13 52.32 -43 24 24.3          19.2 VqEN078E94
     K24N01N KC2024 07 06.65914 19 13 54.62 -43 25 03.0          19.1 VqEN078E94
     K24N01N KB2024 07 07.02650919 15 12.097-43 44 20.71         19.1 VZEN078Y05
     K24N01N KB2024 07 07.03123119 15 12.938-43 44 36.45         19.1 VZEN078Y05
     K24N01N KB2024 07 07.03589019 15 13.842-43 44 50.67         19.5 VZEN078Y05
Observer details:
E94 Possum Observatory, Gisborne.  Observer J. Drummond.  0.41-m f/4.5
    reflector + CCD.
L87 Moonbase South Observatory, Hakos.  Observer G. Duszanowicz.  0.28-m f/1.9
    reflector + CMO.
M21 Schiaparelli Southern Observatory, Hakos.  Observers A. Aletti, F.
    Bellini, L. Buzzi, G. Galli.  Measurer G. Galli.  0.36-m f/8.4 reflector +
    CCD.
M49 IAS Remote Observatory, Hakos.  Observers D. Husar, M. Junius, L. Demetz,
    P. Ditz, R. Hellot, T. Steinbach.  Measurer D. Husar.  0.25-m f/4.5
    reflector + CMO.
Y05 SONEAR Wykrota-CEAMIG, Serra da Piedade.  Observers C. Jacques, A.
    Caetano, E. Pimentel.  Measurer C. Jacques.  0.45-m f/2.9 reflector + CMO.
Orbital elements:
2024 NN1                                                 Earth MOID = 0.0072 AU
Epoch 2024 Mar. 31.0 TT = JDT 2460400.5                 Veres                   
M 327.55711              (2000.0)            P               Q                  
n   0.21840515     Peri.  332.27700     +0.97340299     +0.22877898             
a   2.7308266      Node    14.51307     -0.20023297     +0.87526157             
e   0.6637551      Incl.    2.77118     -0.11132553     +0.42611896             
P   4.51           H   22.35          G   0.15           U   9                  
Residuals in seconds of arc
240704 L87  0.6-  0.3+    240705 E94  0.0   0.2+    240706 E94  0.0   0.1+
240704 L87  0.0   0.3-    240705 E94  0.1+  0.3-    240706 E94  0.1+  0.1-
240704 L87  0.2+  0.1+    240705 M49  0.3-  0.0     240706 E94  0.2+  0.3-
240705 L87  0.7-  0.1-    240705 M49  0.3+  0.0     240707 Y05  0.5-  0.1-
240705 L87  0.2-  0.1+    240705 M49  0.2-  0.1-    240707 Y05  0.4-  0.3-
240705 L87  0.3-  0.0     240706 M21  0.3+  0.2+    240707 Y05  0.6+  0.7+
240705 E94  0.3+  0.1+    240706 M21  0.2-  0.0
Ephemeris:
2024 NN1                 a,e,i = 2.73, 0.66, 3                   q = 0.9182
Date    TT    R. A. (2000) Decl.     Delta      r    Elong.  Phase     V
2024 06 07    18 37 35.7 -31 36 59   0.4374  1.4274   156.8    16.3    22.2
...
2024 06 22    18 49 17.2 -35 28 14   0.2834  1.2915   164.4    12.2    20.9
...
2024 06 30    18 59 01.2 -38 55 44   0.2122  1.2216   163.5    13.6    20.2
...
2024 07 06    19 11 57.3 -42 52 27   0.1633  1.1713   159.7    17.5    19.7
2024 07 07    19 15 03.7 -43 42 40   0.1556  1.1631   158.8    18.4    19.6
2024 07 08    19 18 35.2 -44 36 56   0.1479  1.1550   157.8    19.4    19.5
...
2024 07 14    19 55 33.5 -51 57 45   0.1047  1.1080   149.4    27.8    18.9
...
2024 07 22    23 43 32.7 -63 53 23   0.06039 1.0505   123.5    53.8    18.3
...
2024 08 06    05 19 07.7 -00 03 46   0.09906 0.9655    58.0   117.0    21.9
M. P. C. Staff               (C) Copyright 2024 MPC           M.P.E.C. 2024-N78
    
    
More information about the Iaude
mailing list